Terminal Aerodrome Forecast
Issued by NWS Houston/Galveston, TX

Home | Current Version | Previous Version | Text Only | Print | Product List | Glossary On
Versions: 1 2 3 4 5 6 7 8 9 10 11 12 13 14 15 16 17 18 19 20 21 22 23 24 25 26 27 28 29 30 31 32 33 34 35 36 37 38 39 40 41 42 43 44
000
FTUS44 KHGX 222322
TAFCLL
TAF
KCLL 222322Z 2300/2324 14010KT P6SM FEW040
     FM230800 17005KT P6SM SCT015
      TEMPO 2311/2313 4SM BR BKN015
     FM231500 19007KT P6SM SCT025
     FM231800 18006KT P6SM FEW060=

USA.gov is the U.S. government's official web portal to all federal, state and local government web resources and services.